When you browse on this site, cookies collect data to enhance your experience and personalize the content and advertising you see.
Visit our Privacy Policy to learn more. By continuing to use the site, you agree to this use of cookies and data.
  • In Denmark
  • List of Countries
  • For 7 days
  • Water Temperature
  • Satellite Maps
  • Weather Map
  • Weather Widgets
  • user-avatar
    Login

    Hourly Weather Grzymalin

    Today, 23 July, Tuesday

    Time Temperature Precipitation Wind Pressure Humidity
    00:00 +20°C° 0.1 mm 1 mps 755 mmHg 91%
    01:00 +19°C° 0.1 mm 1 mps 755 mmHg 92%
    02:00 +19°C° 0 mm 1 mps 755 mmHg 91%
    03:00 +20°C° 0 mm 1 mps 755 mmHg 90%
    04:00 +20°C° 0 mm 1 mps 755 mmHg 88%
    05:00 +20°C° 0 mm 2 mps 755 mmHg 84%
    06:00 +20°C° 0 mm 3 mps 755 mmHg 80%
    07:00 +21°C° 0 mm 4 mps 755 mmHg 76%
    08:00 +23°C° 0 mm 4 mps 755 mmHg 72%
    09:00 +25°C° 0 mm 4 mps 755 mmHg 67%
    10:00 +26°C° 0 mm 5 mps 755 mmHg 62%
    11:00 +27°C° 0 mm 5 mps 755 mmHg 59%
    12:00 +28°C° 0 mm 5 mps 755 mmHg 56%
    13:00 +29°C° 0 mm 4 mps 754 mmHg 53%
    14:00 +29°C° 0 mm 4 mps 754 mmHg 53%
    15:00 +29°C° 0 mm 4 mps 754 mmHg 53%
    16:00 +29°C° 0 mm 3 mps 754 mmHg 54%
    17:00 +28°C° 0 mm 3 mps 754 mmHg 58%
    18:00 +27°C° 0 mm 2 mps 754 mmHg 62%
    19:00 +26°C° 0 mm 2 mps 753 mmHg 67%
    20:00 +25°C° 0 mm 1 mps 754 mmHg 72%
    21:00 +23°C° 0 mm 1 mps 754 mmHg 78%
    22:00 +20°C° 0 mm 0 mps 754 mmHg 83%
    23:00 +19°C° 0 mm 0 mps 754 mmHg 85%

    Tomorrow, 24 July, Wednesday

    Time Temperature Precipitation Wind Pressure Humidity
    00:00 +21°C° 0 mm 1 mps 754 mmHg 87%
    01:00 +21°C° 0 mm 1 mps 754 mmHg 88%
    02:00 +20°C° 0 mm 1 mps 754 mmHg 89%
    03:00 +20°C° 0 mm 1 mps 753 mmHg 91%
    04:00 +19°C° 0 mm 1 mps 753 mmHg 92%
    05:00 +21°C° 0 mm 1 mps 753 mmHg 87%
    06:00 +22°C° 0 mm 1 mps 753 mmHg 82%
    07:00 +23°C° 0 mm 1 mps 753 mmHg 76%
    08:00 +25°C° 0 mm 1 mps 753 mmHg 69%
    09:00 +26°C° 0 mm 1 mps 753 mmHg 62%
    10:00 +28°C° 0 mm 1 mps 754 mmHg 55%
    11:00 +29°C° 0 mm 1 mps 753 mmHg 51%
    12:00 +30°C° 0 mm 1 mps 753 mmHg 47%
    13:00 +31°C° 0 mm 1 mps 753 mmHg 43%
    14:00 +31°C° 0 mm 2 mps 753 mmHg 43%
    15:00 +31°C° 0 mm 2 mps 753 mmHg 42%
    16:00 +31°C° 0 mm 2 mps 753 mmHg 42%
    17:00 +30°C° 0 mm 2 mps 753 mmHg 49%
    18:00 +28°C° 0 mm 2 mps 752 mmHg 57%
    19:00 +27°C° 0 mm 3 mps 752 mmHg 64%
    20:00 +25°C° 0 mm 2 mps 753 mmHg 69%
    21:00 +24°C° 0 mm 2 mps 753 mmHg 73%
    22:00 +23°C° 0 mm 1 mps 753 mmHg 77%
    23:00 +22°C° 0 mm 1 mps 753 mmHg 79%

    Day after tomorrow, 25 July, Thursday

    Time Temperature Precipitation Wind Pressure Humidity
    00:00 +22°C° 0 mm 1 mps 753 mmHg 82%
    01:00 +19°C° 0 mm 0 mps 753 mmHg 84%
    02:00 +19°C° 0 mm 0 mps 753 mmHg 85%
    03:00 +19°C° 0 mm 0 mps 753 mmHg 86%
    04:00 +18°C° 0 mm 0 mps 753 mmHg 87%
    05:00 +22°C° 0 mm 1 mps 753 mmHg 82%
    06:00 +23°C° 0 mm 1 mps 753 mmHg 77%
    07:00 +25°C° 0 mm 1 mps 753 mmHg 71%
    08:00 +26°C° 0 mm 1 mps 753 mmHg 65%
    09:00 +28°C° 0 mm 1 mps 753 mmHg 59%
    10:00 +30°C° 0 mm 1 mps 753 mmHg 53%
    11:00 +31°C° 0 mm 1 mps 753 mmHg 49%
    12:00 +32°C° 0 mm 1 mps 753 mmHg 45%
    13:00 +33°C° 0 mm 1 mps 753 mmHg 41%
    14:00 +32°C° 0 mm 1 mps 752 mmHg 40%
    15:00 +32°C° 0 mm 1 mps 752 mmHg 39%
    16:00 +32°C° 0 mm 2 mps 752 mmHg 38%
    17:00 +31°C° 0 mm 2 mps 752 mmHg 45%
    18:00 +29°C° 0 mm 2 mps 752 mmHg 51%
    19:00 +28°C° 0 mm 3 mps 751 mmHg 58%
    20:00 +26°C° 0 mm 2 mps 752 mmHg 62%
    21:00 +25°C° 0 mm 2 mps 752 mmHg 67%
    22:00 +23°C° 0 mm 2 mps 752 mmHg 71%
    23:00 +23°C° 0 mm 1 mps 752 mmHg 74%

    26 July, Friday

    Time Temperature Precipitation Wind Pressure Humidity
    00:00 +22°C° 0 mm 1 mps 752 mmHg 78%
    01:00 +21°C° 0 mm 1 mps 752 mmHg 81%
    02:00 +21°C° 0 mm 1 mps 752 mmHg 83%
    03:00 +20°C° 0 mm 1 mps 752 mmHg 86%
    04:00 +18°C° 0 mm 2 mps 751 mmHg 88%
    05:00 +19°C° 0 mm 2 mps 751 mmHg 81%
    06:00 +20°C° 0 mm 2 mps 751 mmHg 73%
    07:00 +21°C° 0 mm 2 mps 751 mmHg 66%
    08:00 +24°C° 0 mm 3 mps 751 mmHg 59%
    09:00 +25°C° 0 mm 3 mps 751 mmHg 53%
    10:00 +26°C° 0 mm 4 mps 751 mmHg 47%
    11:00 +27°C° 0 mm 4 mps 751 mmHg 46%
    12:00 +27°C° 0 mm 4 mps 751 mmHg 46%
    13:00 +28°C° 0 mm 4 mps 750 mmHg 45%
    14:00 +28°C° 0 mm 4 mps 750 mmHg 45%
    15:00 +28°C° 0 mm 4 mps 750 mmHg 45%
    16:00 +28°C° 0 mm 4 mps 749 mmHg 45%
    17:00 +27°C° 0 mm 3 mps 749 mmHg 50%
    18:00 +26°C° 0 mm 3 mps 749 mmHg 55%
    19:00 +25°C° 0 mm 3 mps 749 mmHg 61%
    20:00 +22°C° 0 mm 3 mps 749 mmHg 64%
    21:00 +21°C° 0 mm 3 mps 750 mmHg 68%
    22:00 +20°C° 0 mm 2 mps 750 mmHg 72%
    23:00 +19°C° 0 mm 2 mps 750 mmHg 75%

    27 July, Saturday

    Time Temperature Precipitation Wind Pressure Humidity
    00:00 +18°C° 0 mm 2 mps 749 mmHg 78%
    01:00 +19°C° 0 mm 1 mps 749 mmHg 81%
    02:00 +18°C° 0 mm 1 mps 749 mmHg 85%
    03:00 +18°C° 0 mm 1 mps 749 mmHg 88%
    04:00 +16°C° 0 mm 1 mps 749 mmHg 92%
    05:00 +18°C° 0 mm 2 mps 749 mmHg 88%
    06:00 +19°C° 0 mm 2 mps 749 mmHg 84%
    07:00 +20°C° 0 mm 2 mps 749 mmHg 79%
    08:00 +22°C° 0.1 mm 3 mps 749 mmHg 74%
    09:00 +24°C° 0.1 mm 3 mps 749 mmHg 68%
    10:00 +26°C° 0.1 mm 4 mps 749 mmHg 62%
    11:00 +26°C° 0.2 mm 4 mps 748 mmHg 60%
    12:00 +27°C° 0.2 mm 4 mps 748 mmHg 58%
    13:00 +28°C° 0.2 mm 4 mps 748 mmHg 56%
    14:00 +28°C° 0.3 mm 4 mps 748 mmHg 55%
    15:00 +28°C° 0.3 mm 5 mps 747 mmHg 53%
    16:00 +28°C° 0.3 mm 5 mps 747 mmHg 52%
    17:00 +27°C° 0 mm 4 mps 747 mmHg 56%
    18:00 +26°C° 0 mm 4 mps 747 mmHg 60%
    19:00 +25°C° 0 mm 3 mps 747 mmHg 64%
    20:00 +24°C° 0 mm 3 mps 747 mmHg 68%
    21:00 +22°C° 0 mm 3 mps 747 mmHg 72%
    22:00 +20°C° 0 mm 3 mps 748 mmHg 76%
    23:00 +20°C° 0 mm 3 mps 748 mmHg 79%

    28 July, Sunday

    Time Temperature Precipitation Wind Pressure Humidity
    00:00 +19°C° 0 mm 2 mps 747 mmHg 83%
    01:00 +18°C° 0 mm 2 mps 747 mmHg 87%
    02:00 +18°C° 0 mm 2 mps 747 mmHg 89%
    03:00 +17°C° 0 mm 2 mps 747 mmHg 91%
    04:00 +17°C° 0 mm 2 mps 747 mmHg 94%
    05:00 +18°C° 0 mm 2 mps 747 mmHg 88%
    06:00 +19°C° 0 mm 3 mps 747 mmHg 82%
    07:00 +21°C° 0 mm 3 mps 747 mmHg 77%
    08:00 +23°C° 0 mm 4 mps 747 mmHg 69%
    09:00 +25°C° 0 mm 4 mps 747 mmHg 62%
    10:00 +27°C° 0 mm 4 mps 747 mmHg 54%
    11:00 +28°C° 0 mm 4 mps 747 mmHg 50%
    12:00 +29°C° 0 mm 4 mps 747 mmHg 46%
    13:00 +30°C° 0 mm 5 mps 746 mmHg 43%
    14:00 +30°C° 0.1 mm 5 mps 746 mmHg 46%
    15:00 +29°C° 0.1 mm 5 mps 746 mmHg 50%
    16:00 +28°C° 0.1 mm 5 mps 746 mmHg 54%
    17:00 +27°C° 0.6 mm 4 mps 746 mmHg 61%
    18:00 +26°C° 0.6 mm 4 mps 746 mmHg 67%
    19:00 +24°C° 0.6 mm 3 mps 746 mmHg 74%
    20:00 +22°C° 0.2 mm 3 mps 746 mmHg 78%
    21:00 +21°C° 0.2 mm 2 mps 746 mmHg 82%
    22:00 +20°C° 0.2 mm 2 mps 746 mmHg 87%
    23:00 +20°C° 0.1 mm 2 mps 746 mmHg 88%
    Show more